Location: Igri�s
(42.2144°N, 0.4320°W)
Time: 16:12:13
(UTC+00:00)

Cosmos 1763 Rocket - Pass Details

Date: 13 August 2020
Orbit: 732 x 780 km, 74.0° (Epoch: 17 September)

Event Time Altitude Azimuth Distance (km) Brightness Sun altitude
Rises 20:42:55 0° 345° (NNW) 3,274 7.7 -16.6°
Reaches altitude 10° 20:45:26 10° 352° (N) 2,343 6.7 -17.0°
Maximum altitude 20:50:31 43° 64° (ENE) 1,082 4.1 -17.7°
Enters shadow 20:52:27 31° 112° (ESE) 1,343 4.2 -18.0°
